Location: Beaver Brook Trail
(44.0290°N, 71.8137°W)
Time: 13:19:12
(UTC+00:00)

Tiangong - Visible Passes

Search period start: 13 October 2024 00:00
Search period end: 23 October 2024 00:00
Orbit: 372 x 377 km, 41.5° (Epoch: 12 October)

Date Brightness Start Highest point End Pass type
(mag) Time Alt. Az. Time Alt. Az. Time Alt. Az.
16 Oct 0.7 10:21:47 10° S 10:23:16 13° SSE 10:24:46 10° ESE visible
18 Oct 0.3 09:50:48 10° SSW 09:53:01 18° SSE 09:55:13 10° ESE visible
19 Oct 1.0 08:50:26 11° SE 08:50:26 11° SE 08:50:47 10° SE visible
19 Oct -0.8 10:22:59 10° SW 10:25:51 35° SSE 10:28:42 10° E visible
20 Oct -0.4 09:22:10 24° S 09:22:29 24° SSE 09:25:04 10° ESE visible
21 Oct -1.3 09:53:45 24° SW 09:55:13 42° S 09:58:10 10° E visible
22 Oct 0.4 08:53:13 19° ESE 08:53:13 19° ESE 08:54:28 10° E visible
22 Oct -1.7 10:25:11 12° WSW 10:27:59 53° S 10:30:59 10° ESE visible
